Terug naar catalogus

STARLINK-30274

ActiefCommunicatieVLEO
NORAD 57672·PAYLOAD·🇺🇸 United States

Gelanceerd Aug 22, 2023 vanaf Vandenberg Space Force Base

Loading…

Volgende Passages (komende 24 uur)

TLE

VersSource: CelesTrak SupGP

Epoch: Sep 15, 2026, 02:53 UTC

1 57672C 23124K   26258.12062500 -.00009500  00000+0 -28076-3 0  2587
2 57672  53.1585  44.5327 0001273  90.8823 316.6310 15.34385685    13

Volg STARLINK-30274 in realtime met AllMySat

Download on the App Store